Terminal Aerodrome Forecast
Issued by NWS

Home | Current Version | Previous Version | Text Only | Print | Product List | Glossary On
Versions: 1 2 3 4 5 6 7 8 9 10 11 12 13 14 15 16 17 18 19 20 21 22 23 24 25 26 27 28 29 30 31 32 33 34 35 36 37 38 39 40 41 42 43 44 45 46 47 48 49 50
000
FTUS44 KHGX 012330
TAFIAH
TAF
KIAH 012330Z 0200/0306 14011KT P6SM FEW040 SCT250
     FM020500 16004KT P6SM SCT030 SCT250
      TEMPO 0208/0212 BKN027
     FM021600 14009KT P6SM VCTS SCT035CB SCT250
      TEMPO 0217/0221 TSRA BKN040CB
     FM022300 15010KT P6SM SCT040 SCT250=

USA.gov is the U.S. government's official web portal to all federal, state and local government web resources and services.